Index of /20260423/WXO-DD/model_gdps/15km/12/072
Name Last modified Size Description
Parent Directory -
20260423T12Z_MSC_GDPS_AbsoluteVorticity_IsbL-0200_LatLon0.15_PT072H.grib2 2026-04-23 16:17 1.4M
20260423T12Z_MSC_GDPS_AbsoluteVorticity_IsbL-0250_LatLon0.15_PT072H.grib2 2026-04-23 16:17 1.3M
20260423T12Z_MSC_GDPS_AbsoluteVorticity_IsbL-0500_LatLon0.15_PT072H.grib2 2026-04-23 16:17 1.4M
20260423T12Z_MSC_GDPS_AbsoluteVorticity_IsbL-0700_LatLon0.15_PT072H.grib2 2026-04-23 16:17 1.6M
20260423T12Z_MSC_GDPS_AbsoluteVorticity_IsbL-0850_LatLon0.15_PT072H.grib2 2026-04-23 16:17 1.6M
20260423T12Z_MSC_GDPS_AirTemp-Max_AGL-2m_LatLon0.15_PT072H.grib2 2026-04-23 16:17 744K
20260423T12Z_MSC_GDPS_AirTemp-Min_AGL-2m_LatLon0.15_PT072H.grib2 2026-04-23 16:17 791K
20260423T12Z_MSC_GDPS_AirTemp_AGL-120m_LatLon0.15_PT072H.grib2 2026-04-23 16:17 908K
20260423T12Z_MSC_GDPS_AirTemp_AGL-2m_LatLon0.15_PT072H.grib2 2026-04-23 16:17 1.0M
20260423T12Z_MSC_GDPS_AirTemp_AGL-40m_LatLon0.15_PT072H.grib2 2026-04-23 16:17 814K
20260423T12Z_MSC_GDPS_AirTemp_AGL-80m_LatLon0.15_PT072H.grib2 2026-04-23 16:17 802K
20260423T12Z_MSC_GDPS_AirTemp_IsbL-0001_LatLon0.15_PT072H.grib2 2026-04-23 16:17 642K
20260423T12Z_MSC_GDPS_AirTemp_IsbL-0005_LatLon0.15_PT072H.grib2 2026-04-23 16:17 690K
20260423T12Z_MSC_GDPS_AirTemp_IsbL-0010_LatLon0.15_PT072H.grib2 2026-04-23 16:17 759K
20260423T12Z_MSC_GDPS_AirTemp_IsbL-0020_LatLon0.15_PT072H.grib2 2026-04-23 16:17 698K
20260423T12Z_MSC_GDPS_AirTemp_IsbL-0030_LatLon0.15_PT072H.grib2 2026-04-23 16:17 752K
20260423T12Z_MSC_GDPS_AirTemp_IsbL-0050_LatLon0.15_PT072H.grib2 2026-04-23 16:17 809K
20260423T12Z_MSC_GDPS_AirTemp_IsbL-0100_LatLon0.15_PT072H.grib2 2026-04-23 16:17 1.0M
20260423T12Z_MSC_GDPS_AirTemp_IsbL-0150_LatLon0.15_PT072H.grib2 2026-04-23 16:17 958K
20260423T12Z_MSC_GDPS_AirTemp_IsbL-0175_LatLon0.15_PT072H.grib2 2026-04-23 16:17 944K
20260423T12Z_MSC_GDPS_AirTemp_IsbL-0200_LatLon0.15_PT072H.grib2 2026-04-23 16:17 959K
20260423T12Z_MSC_GDPS_AirTemp_IsbL-0225_LatLon0.15_PT072H.grib2 2026-04-23 16:17 965K
20260423T12Z_MSC_GDPS_AirTemp_IsbL-0250_LatLon0.15_PT072H.grib2 2026-04-23 16:17 1.0M
20260423T12Z_MSC_GDPS_AirTemp_IsbL-0275_LatLon0.15_PT072H.grib2 2026-04-23 16:17 1.0M
20260423T12Z_MSC_GDPS_AirTemp_IsbL-0300_LatLon0.15_PT072H.grib2 2026-04-23 16:17 1.0M
20260423T12Z_MSC_GDPS_AirTemp_IsbL-0350_LatLon0.15_PT072H.grib2 2026-04-23 16:17 923K
20260423T12Z_MSC_GDPS_AirTemp_IsbL-0400_LatLon0.15_PT072H.grib2 2026-04-23 16:17 934K
20260423T12Z_MSC_GDPS_AirTemp_IsbL-0450_LatLon0.15_PT072H.grib2 2026-04-23 16:17 957K
20260423T12Z_MSC_GDPS_AirTemp_IsbL-0500_LatLon0.15_PT072H.grib2 2026-04-23 16:17 1.0M
20260423T12Z_MSC_GDPS_AirTemp_IsbL-0550_LatLon0.15_PT072H.grib2 2026-04-23 16:17 802K
20260423T12Z_MSC_GDPS_AirTemp_IsbL-0600_LatLon0.15_PT072H.grib2 2026-04-23 16:17 894K
20260423T12Z_MSC_GDPS_AirTemp_IsbL-0650_LatLon0.15_PT072H.grib2 2026-04-23 16:17 927K
20260423T12Z_MSC_GDPS_AirTemp_IsbL-0700_LatLon0.15_PT072H.grib2 2026-04-23 16:17 958K
20260423T12Z_MSC_GDPS_AirTemp_IsbL-0750_LatLon0.15_PT072H.grib2 2026-04-23 16:17 1.0M
20260423T12Z_MSC_GDPS_AirTemp_IsbL-0800_LatLon0.15_PT072H.grib2 2026-04-23 16:17 1.1M
20260423T12Z_MSC_GDPS_AirTemp_IsbL-0850_LatLon0.15_PT072H.grib2 2026-04-23 16:17 1.1M
20260423T12Z_MSC_GDPS_AirTemp_IsbL-0875_LatLon0.15_PT072H.grib2 2026-04-23 16:17 1.2M
20260423T12Z_MSC_GDPS_AirTemp_IsbL-0900_LatLon0.15_PT072H.grib2 2026-04-23 16:17 1.1M
20260423T12Z_MSC_GDPS_AirTemp_IsbL-0925_LatLon0.15_PT072H.grib2 2026-04-23 16:17 1.1M
20260423T12Z_MSC_GDPS_AirTemp_IsbL-0950_LatLon0.15_PT072H.grib2 2026-04-23 16:17 1.1M
20260423T12Z_MSC_GDPS_AirTemp_IsbL-0970_LatLon0.15_PT072H.grib2 2026-04-23 16:17 1.2M
20260423T12Z_MSC_GDPS_AirTemp_IsbL-0985_LatLon0.15_PT072H.grib2 2026-04-23 16:17 1.2M
20260423T12Z_MSC_GDPS_AirTemp_IsbL-1000_LatLon0.15_PT072H.grib2 2026-04-23 16:17 1.1M
20260423T12Z_MSC_GDPS_AirTemp_IsbL-1015_LatLon0.15_PT072H.grib2 2026-04-23 16:17 1.1M
20260423T12Z_MSC_GDPS_Albedo_Sfc_LatLon0.15_PT072H.grib2 2026-04-23 16:17 243K
20260423T12Z_MSC_GDPS_CAPE_Sfc_LatLon0.15_PT072H.grib2 2026-04-23 16:17 3.9M
20260423T12Z_MSC_GDPS_CIN_Sfc_LatLon0.15_PT072H.grib2 2026-04-23 16:17 3.0M
20260423T12Z_MSC_GDPS_CloudWater_EAtm_LatLon0.15_PT072H.grib2 2026-04-23 16:17 538K
20260423T12Z_MSC_GDPS_ConvectivePrecip-Accum_Sfc_LatLon0.15_PT072H.grib2 2026-04-23 16:17 3.0M
20260423T12Z_MSC_GDPS_DewPointDepression_AGL-2m_LatLon0.15_PT072H.grib2 2026-04-23 16:17 754K
20260423T12Z_MSC_GDPS_DewPointDepression_IsbL-0010_LatLon0.15_PT072H.grib2 2026-04-23 16:17 33K
20260423T12Z_MSC_GDPS_DewPointDepression_IsbL-0020_LatLon0.15_PT072H.grib2 2026-04-23 16:17 74K
20260423T12Z_MSC_GDPS_DewPointDepression_IsbL-0030_LatLon0.15_PT072H.grib2 2026-04-23 16:17 84K
20260423T12Z_MSC_GDPS_DewPointDepression_IsbL-0050_LatLon0.15_PT072H.grib2 2026-04-23 16:17 361K
20260423T12Z_MSC_GDPS_DewPointDepression_IsbL-0100_LatLon0.15_PT072H.grib2 2026-04-23 16:17 389K
20260423T12Z_MSC_GDPS_DewPointDepression_IsbL-0150_LatLon0.15_PT072H.grib2 2026-04-23 16:17 456K
20260423T12Z_MSC_GDPS_DewPointDepression_IsbL-0175_LatLon0.15_PT072H.grib2 2026-04-23 16:17 551K
20260423T12Z_MSC_GDPS_DewPointDepression_IsbL-0200_LatLon0.15_PT072H.grib2 2026-04-23 16:17 644K
20260423T12Z_MSC_GDPS_DewPointDepression_IsbL-0225_LatLon0.15_PT072H.grib2 2026-04-23 16:17 757K
20260423T12Z_MSC_GDPS_DewPointDepression_IsbL-0250_LatLon0.15_PT072H.grib2 2026-04-23 16:17 854K
20260423T12Z_MSC_GDPS_DewPointDepression_IsbL-0275_LatLon0.15_PT072H.grib2 2026-04-23 16:17 882K
20260423T12Z_MSC_GDPS_DewPointDepression_IsbL-0300_LatLon0.15_PT072H.grib2 2026-04-23 16:17 927K
20260423T12Z_MSC_GDPS_DewPointDepression_IsbL-0350_LatLon0.15_PT072H.grib2 2026-04-23 16:17 963K
20260423T12Z_MSC_GDPS_DewPointDepression_IsbL-0400_LatLon0.15_PT072H.grib2 2026-04-23 16:17 1.0M
20260423T12Z_MSC_GDPS_DewPointDepression_IsbL-0450_LatLon0.15_PT072H.grib2 2026-04-23 16:17 1.0M
20260423T12Z_MSC_GDPS_DewPointDepression_IsbL-0500_LatLon0.15_PT072H.grib2 2026-04-23 16:17 1.0M
20260423T12Z_MSC_GDPS_DewPointDepression_IsbL-0550_LatLon0.15_PT072H.grib2 2026-04-23 16:17 1.0M
20260423T12Z_MSC_GDPS_DewPointDepression_IsbL-0600_LatLon0.15_PT072H.grib2 2026-04-23 16:17 1.1M
20260423T12Z_MSC_GDPS_DewPointDepression_IsbL-0650_LatLon0.15_PT072H.grib2 2026-04-23 16:17 1.1M
20260423T12Z_MSC_GDPS_DewPointDepression_IsbL-0700_LatLon0.15_PT072H.grib2 2026-04-23 16:17 1.1M
20260423T12Z_MSC_GDPS_DewPointDepression_IsbL-0750_LatLon0.15_PT072H.grib2 2026-04-23 16:17 1.1M
20260423T12Z_MSC_GDPS_DewPointDepression_IsbL-0800_LatLon0.15_PT072H.grib2 2026-04-23 16:17 1.2M
20260423T12Z_MSC_GDPS_DewPointDepression_IsbL-0850_LatLon0.15_PT072H.grib2 2026-04-23 16:17 1.2M
20260423T12Z_MSC_GDPS_DewPointDepression_IsbL-0875_LatLon0.15_PT072H.grib2 2026-04-23 16:17 1.1M
20260423T12Z_MSC_GDPS_DewPointDepression_IsbL-0900_LatLon0.15_PT072H.grib2 2026-04-23 16:17 1.1M
20260423T12Z_MSC_GDPS_DewPointDepression_IsbL-0925_LatLon0.15_PT072H.grib2 2026-04-23 16:17 1.0M
20260423T12Z_MSC_GDPS_DewPointDepression_IsbL-0950_LatLon0.15_PT072H.grib2 2026-04-23 16:17 1.0M
20260423T12Z_MSC_GDPS_DewPointDepression_IsbL-0970_LatLon0.15_PT072H.grib2 2026-04-23 16:17 1.0M
20260423T12Z_MSC_GDPS_DewPointDepression_IsbL-0985_LatLon0.15_PT072H.grib2 2026-04-23 16:17 1.0M
20260423T12Z_MSC_GDPS_DewPointDepression_IsbL-1000_LatLon0.15_PT072H.grib2 2026-04-23 16:17 1.0M
20260423T12Z_MSC_GDPS_DewPointDepression_IsbL-1015_LatLon0.15_PT072H.grib2 2026-04-23 16:17 918K
20260423T12Z_MSC_GDPS_DewPoint_AGL-2m_LatLon0.15_PT072H.grib2 2026-04-23 16:17 612K
20260423T12Z_MSC_GDPS_DownwardLongwaveRadiationFlux-Accum_Sfc_LatLon0.15_PT072H.grib2 2026-04-23 16:17 912K
20260423T12Z_MSC_GDPS_DownwardShortwaveRadiationFlux-Accum_NTAtm_LatLon0.15_PT072H.grib2 2026-04-23 16:17 164K
20260423T12Z_MSC_GDPS_DownwardShortwaveRadiationFlux-Accum_Sfc_LatLon0.15_PT072H.grib2 2026-04-23 16:17 1.1M
20260423T12Z_MSC_GDPS_FreezingRain-Accum12h_Sfc_LatLon0.15_PT072H.grib2 2026-04-23 16:17 119K
20260423T12Z_MSC_GDPS_FreezingRain-Accum1h_Sfc_LatLon0.15_PT072H.grib2 2026-04-23 16:17 65K
20260423T12Z_MSC_GDPS_FreezingRain-Accum24h_Sfc_LatLon0.15_PT072H.grib2 2026-04-23 16:17 184K
20260423T12Z_MSC_GDPS_FreezingRain-Accum3h_Sfc_LatLon0.15_PT072H.grib2 2026-04-23 16:17 68K
20260423T12Z_MSC_GDPS_FreezingRain-Accum6h_Sfc_LatLon0.15_PT072H.grib2 2026-04-23 16:17 92K
20260423T12Z_MSC_GDPS_FreezingRain-Accum_Sfc_LatLon0.15_PT072H.grib2 2026-04-23 16:17 306K
20260423T12Z_MSC_GDPS_GeopotentialHeight_IsbL-0001_LatLon0.15_PT072H.grib2 2026-04-23 16:17 401K
20260423T12Z_MSC_GDPS_GeopotentialHeight_IsbL-0005_LatLon0.15_PT072H.grib2 2026-04-23 16:17 502K
20260423T12Z_MSC_GDPS_GeopotentialHeight_IsbL-0010_LatLon0.15_PT072H.grib2 2026-04-23 16:17 484K
20260423T12Z_MSC_GDPS_GeopotentialHeight_IsbL-0020_LatLon0.15_PT072H.grib2 2026-04-23 16:17 423K
20260423T12Z_MSC_GDPS_GeopotentialHeight_IsbL-0030_LatLon0.15_PT072H.grib2 2026-04-23 16:17 579K
20260423T12Z_MSC_GDPS_GeopotentialHeight_IsbL-0050_LatLon0.15_PT072H.grib2 2026-04-23 16:17 576K
20260423T12Z_MSC_GDPS_GeopotentialHeight_IsbL-0100_LatLon0.15_PT072H.grib2 2026-04-23 16:17 606K
20260423T12Z_MSC_GDPS_GeopotentialHeight_IsbL-0150_LatLon0.15_PT072H.grib2 2026-04-23 16:17 623K
20260423T12Z_MSC_GDPS_GeopotentialHeight_IsbL-0175_LatLon0.15_PT072H.grib2 2026-04-23 16:17 627K
20260423T12Z_MSC_GDPS_GeopotentialHeight_IsbL-0200_LatLon0.15_PT072H.grib2 2026-04-23 16:17 630K
20260423T12Z_MSC_GDPS_GeopotentialHeight_IsbL-0225_LatLon0.15_PT072H.grib2 2026-04-23 16:17 630K
20260423T12Z_MSC_GDPS_GeopotentialHeight_IsbL-0250_LatLon0.15_PT072H.grib2 2026-04-23 16:17 638K
20260423T12Z_MSC_GDPS_GeopotentialHeight_IsbL-0275_LatLon0.15_PT072H.grib2 2026-04-23 16:17 642K
20260423T12Z_MSC_GDPS_GeopotentialHeight_IsbL-0300_LatLon0.15_PT072H.grib2 2026-04-23 16:17 635K
20260423T12Z_MSC_GDPS_GeopotentialHeight_IsbL-0350_LatLon0.15_PT072H.grib2 2026-04-23 16:17 633K
20260423T12Z_MSC_GDPS_GeopotentialHeight_IsbL-0400_LatLon0.15_PT072H.grib2 2026-04-23 16:17 623K
20260423T12Z_MSC_GDPS_GeopotentialHeight_IsbL-0450_LatLon0.15_PT072H.grib2 2026-04-23 16:17 614K
20260423T12Z_MSC_GDPS_GeopotentialHeight_IsbL-0500_LatLon0.15_PT072H.grib2 2026-04-23 16:17 533K
20260423T12Z_MSC_GDPS_GeopotentialHeight_IsbL-0550_LatLon0.15_PT072H.grib2 2026-04-23 16:17 523K
20260423T12Z_MSC_GDPS_GeopotentialHeight_IsbL-0600_LatLon0.15_PT072H.grib2 2026-04-23 16:17 521K
20260423T12Z_MSC_GDPS_GeopotentialHeight_IsbL-0650_LatLon0.15_PT072H.grib2 2026-04-23 16:17 689K
20260423T12Z_MSC_GDPS_GeopotentialHeight_IsbL-0700_LatLon0.15_PT072H.grib2 2026-04-23 16:17 691K
20260423T12Z_MSC_GDPS_GeopotentialHeight_IsbL-0750_LatLon0.15_PT072H.grib2 2026-04-23 16:17 690K
20260423T12Z_MSC_GDPS_GeopotentialHeight_IsbL-0800_LatLon0.15_PT072H.grib2 2026-04-23 16:17 704K
20260423T12Z_MSC_GDPS_GeopotentialHeight_IsbL-0850_LatLon0.15_PT072H.grib2 2026-04-23 16:17 712K
20260423T12Z_MSC_GDPS_GeopotentialHeight_IsbL-0875_LatLon0.15_PT072H.grib2 2026-04-23 16:17 714K
20260423T12Z_MSC_GDPS_GeopotentialHeight_IsbL-0900_LatLon0.15_PT072H.grib2 2026-04-23 16:17 721K
20260423T12Z_MSC_GDPS_GeopotentialHeight_IsbL-0925_LatLon0.15_PT072H.grib2 2026-04-23 16:17 730K
20260423T12Z_MSC_GDPS_GeopotentialHeight_IsbL-0950_LatLon0.15_PT072H.grib2 2026-04-23 16:17 735K
20260423T12Z_MSC_GDPS_GeopotentialHeight_IsbL-0970_LatLon0.15_PT072H.grib2 2026-04-23 16:17 745K
20260423T12Z_MSC_GDPS_GeopotentialHeight_IsbL-0985_LatLon0.15_PT072H.grib2 2026-04-23 16:17 763K
20260423T12Z_MSC_GDPS_GeopotentialHeight_IsbL-1000_LatLon0.15_PT072H.grib2 2026-04-23 16:17 786K
20260423T12Z_MSC_GDPS_GeopotentialHeight_IsbL-1015_LatLon0.15_PT072H.grib2 2026-04-23 16:17 810K
20260423T12Z_MSC_GDPS_Humidex_Sfc_LatLon0.15_PT072H.grib2 2026-04-23 16:17 5.3M
20260423T12Z_MSC_GDPS_IcePellets-Accum12h_Sfc_LatLon0.15_PT072H.grib2 2026-04-23 16:17 40K
20260423T12Z_MSC_GDPS_IcePellets-Accum1h_Sfc_LatLon0.15_PT072H.grib2 2026-04-23 16:17 21K
20260423T12Z_MSC_GDPS_IcePellets-Accum24h_Sfc_LatLon0.15_PT072H.grib2 2026-04-23 16:17 61K
20260423T12Z_MSC_GDPS_IcePellets-Accum3h_Sfc_LatLon0.15_PT072H.grib2 2026-04-23 16:17 24K
20260423T12Z_MSC_GDPS_IcePellets-Accum6h_Sfc_LatLon0.15_PT072H.grib2 2026-04-23 16:17 33K
20260423T12Z_MSC_GDPS_IcePellets-Accum_Sfc_LatLon0.15_PT072H.grib2 2026-04-23 16:17 111K
20260423T12Z_MSC_GDPS_KIndex_Sfc_LatLon0.15_PT072H.grib2 2026-04-23 16:17 6.5M
20260423T12Z_MSC_GDPS_LatentHeatNetFlux_Sfc_LatLon0.15_PT072H.grib2 2026-04-23 16:17 715K
20260423T12Z_MSC_GDPS_LiftedIndex-MU-VT_IsbL-0500_LatLon0.15_PT072H.grib2 2026-04-23 16:17 5.4M
20260423T12Z_MSC_GDPS_NetLongwaveRadiationFlux-Accum_Sfc_LatLon0.15_PT072H.grib2 2026-04-23 16:17 969K
20260423T12Z_MSC_GDPS_NetShortwaveRadiationFlux-Accum_Sfc_LatLon0.15_PT072H.grib2 2026-04-23 16:17 1.1M
20260423T12Z_MSC_GDPS_O3MixingRatio_LatLon0.15_PT072H.grib2 2026-04-23 16:51 2.2M
20260423T12Z_MSC_GDPS_O3_EAtm_LatLon0.15_PT072H.grib2 2026-04-23 16:51 2.5M
20260423T12Z_MSC_GDPS_PlanetaryBoundaryLayerHeight_Sfc_LatLon0.15_PT072H.grib2 2026-04-23 16:17 2.5M
20260423T12Z_MSC_GDPS_Precip-Accum12h_Sfc_LatLon0.15_PT072H.grib2 2026-04-23 16:17 4.1M
20260423T12Z_MSC_GDPS_Precip-Accum1h_Sfc_LatLon0.15_PT072H.grib2 2026-04-23 16:17 3.3M
20260423T12Z_MSC_GDPS_Precip-Accum24h_Sfc_LatLon0.15_PT072H.grib2 2026-04-23 16:17 4.6M
20260423T12Z_MSC_GDPS_Precip-Accum3h_Sfc_LatLon0.15_PT072H.grib2 2026-04-23 16:17 3.6M
20260423T12Z_MSC_GDPS_Precip-Accum6h_Sfc_LatLon0.15_PT072H.grib2 2026-04-23 16:17 3.9M
20260423T12Z_MSC_GDPS_Precip-Accum_Sfc_LatLon0.15_PT072H.grib2 2026-04-23 16:17 5.2M
20260423T12Z_MSC_GDPS_PrecipRate_Sfc_LatLon0.15_PT072H.grib2 2026-04-23 16:17 3.2M
20260423T12Z_MSC_GDPS_PrecipType-Instant_Sfc_LatLon0.15_PT072H.grib2 2026-04-23 16:17 1.7M
20260423T12Z_MSC_GDPS_Pressure_MSL_LatLon0.15_PT072H.grib2 2026-04-23 16:17 722K
20260423T12Z_MSC_GDPS_Pressure_PVU-1.5_LatLon0.15_PT072H.grib2 2026-04-23 16:17 5.8M
20260423T12Z_MSC_GDPS_Pressure_PVU-1_LatLon0.15_PT072H.grib2 2026-04-23 16:17 6.0M
20260423T12Z_MSC_GDPS_Pressure_PVU-2_LatLon0.15_PT072H.grib2 2026-04-23 16:17 5.6M
20260423T12Z_MSC_GDPS_Pressure_Sfc_LatLon0.15_PT072H.grib2 2026-04-23 16:17 1.1M
20260423T12Z_MSC_GDPS_RadiativeTemp_Sfc_LatLon0.15_PT072H.grib2 2026-04-23 16:17 503K
20260423T12Z_MSC_GDPS_Rain-Accum12h_Sfc_LatLon0.15_PT072H.grib2 2026-04-23 16:17 2.8M
20260423T12Z_MSC_GDPS_Rain-Accum1h_Sfc_LatLon0.15_PT072H.grib2 2026-04-23 16:17 1.7M
20260423T12Z_MSC_GDPS_Rain-Accum24h_Sfc_LatLon0.15_PT072H.grib2 2026-04-23 16:17 3.2M
20260423T12Z_MSC_GDPS_Rain-Accum3h_Sfc_LatLon0.15_PT072H.grib2 2026-04-23 16:17 1.9M
20260423T12Z_MSC_GDPS_Rain-Accum6h_Sfc_LatLon0.15_PT072H.grib2 2026-04-23 16:17 2.5M
20260423T12Z_MSC_GDPS_Rain-Accum_Sfc_LatLon0.15_PT072H.grib2 2026-04-23 16:17 3.9M
20260423T12Z_MSC_GDPS_RelativeHumidity_AGL-2m_LatLon0.15_PT072H.grib2 2026-04-23 16:17 1.1M
20260423T12Z_MSC_GDPS_RelativeHumidity_IsbL-0010_LatLon0.15_PT072H.grib2 2026-04-23 16:17 263K
20260423T12Z_MSC_GDPS_RelativeHumidity_IsbL-0020_LatLon0.15_PT072H.grib2 2026-04-23 16:17 273K
20260423T12Z_MSC_GDPS_RelativeHumidity_IsbL-0030_LatLon0.15_PT072H.grib2 2026-04-23 16:17 345K
20260423T12Z_MSC_GDPS_RelativeHumidity_IsbL-0050_LatLon0.15_PT072H.grib2 2026-04-23 16:17 418K
20260423T12Z_MSC_GDPS_RelativeHumidity_IsbL-0100_LatLon0.15_PT072H.grib2 2026-04-23 16:17 491K
20260423T12Z_MSC_GDPS_RelativeHumidity_IsbL-0150_LatLon0.15_PT072H.grib2 2026-04-23 16:17 655K
20260423T12Z_MSC_GDPS_RelativeHumidity_IsbL-0175_LatLon0.15_PT072H.grib2 2026-04-23 16:17 769K
20260423T12Z_MSC_GDPS_RelativeHumidity_IsbL-0200_LatLon0.15_PT072H.grib2 2026-04-23 16:17 688K
20260423T12Z_MSC_GDPS_RelativeHumidity_IsbL-0225_LatLon0.15_PT072H.grib2 2026-04-23 16:17 773K
20260423T12Z_MSC_GDPS_RelativeHumidity_IsbL-0250_LatLon0.15_PT072H.grib2 2026-04-23 16:17 856K
20260423T12Z_MSC_GDPS_RelativeHumidity_IsbL-0275_LatLon0.15_PT072H.grib2 2026-04-23 16:17 884K
20260423T12Z_MSC_GDPS_RelativeHumidity_IsbL-0300_LatLon0.15_PT072H.grib2 2026-04-23 16:17 932K
20260423T12Z_MSC_GDPS_RelativeHumidity_IsbL-0350_LatLon0.15_PT072H.grib2 2026-04-23 16:17 959K
20260423T12Z_MSC_GDPS_RelativeHumidity_IsbL-0400_LatLon0.15_PT072H.grib2 2026-04-23 16:17 1.0M
20260423T12Z_MSC_GDPS_RelativeHumidity_IsbL-0450_LatLon0.15_PT072H.grib2 2026-04-23 16:17 1.0M
20260423T12Z_MSC_GDPS_RelativeHumidity_IsbL-0500_LatLon0.15_PT072H.grib2 2026-04-23 16:17 1.0M
20260423T12Z_MSC_GDPS_RelativeHumidity_IsbL-0550_LatLon0.15_PT072H.grib2 2026-04-23 16:17 1.0M
20260423T12Z_MSC_GDPS_RelativeHumidity_IsbL-0600_LatLon0.15_PT072H.grib2 2026-04-23 16:17 1.1M
20260423T12Z_MSC_GDPS_RelativeHumidity_IsbL-0650_LatLon0.15_PT072H.grib2 2026-04-23 16:17 1.1M
20260423T12Z_MSC_GDPS_RelativeHumidity_IsbL-0700_LatLon0.15_PT072H.grib2 2026-04-23 16:17 1.2M
20260423T12Z_MSC_GDPS_RelativeHumidity_IsbL-0750_LatLon0.15_PT072H.grib2 2026-04-23 16:17 1.2M
20260423T12Z_MSC_GDPS_RelativeHumidity_IsbL-0800_LatLon0.15_PT072H.grib2 2026-04-23 16:17 1.3M
20260423T12Z_MSC_GDPS_RelativeHumidity_IsbL-0850_LatLon0.15_PT072H.grib2 2026-04-23 16:17 1.3M
20260423T12Z_MSC_GDPS_RelativeHumidity_IsbL-0875_LatLon0.15_PT072H.grib2 2026-04-23 16:17 1.3M
20260423T12Z_MSC_GDPS_RelativeHumidity_IsbL-0900_LatLon0.15_PT072H.grib2 2026-04-23 16:17 1.2M
20260423T12Z_MSC_GDPS_RelativeHumidity_IsbL-0925_LatLon0.15_PT072H.grib2 2026-04-23 16:17 1.2M
20260423T12Z_MSC_GDPS_RelativeHumidity_IsbL-0950_LatLon0.15_PT072H.grib2 2026-04-23 16:17 1.2M
20260423T12Z_MSC_GDPS_RelativeHumidity_IsbL-0970_LatLon0.15_PT072H.grib2 2026-04-23 16:17 1.2M
20260423T12Z_MSC_GDPS_RelativeHumidity_IsbL-0985_LatLon0.15_PT072H.grib2 2026-04-23 16:17 1.2M
20260423T12Z_MSC_GDPS_RelativeHumidity_IsbL-1000_LatLon0.15_PT072H.grib2 2026-04-23 16:17 1.1M
20260423T12Z_MSC_GDPS_RelativeHumidity_IsbL-1015_LatLon0.15_PT072H.grib2 2026-04-23 16:17 1.1M
20260423T12Z_MSC_GDPS_RelativeVorticity_IsbL-0200_LatLon0.15_PT072H.grib2 2026-04-23 16:17 1.4M
20260423T12Z_MSC_GDPS_RelativeVorticity_IsbL-0250_LatLon0.15_PT072H.grib2 2026-04-23 16:17 1.6M
20260423T12Z_MSC_GDPS_RelativeVorticity_IsbL-0500_LatLon0.15_PT072H.grib2 2026-04-23 16:17 1.4M
20260423T12Z_MSC_GDPS_RelativeVorticity_IsbL-0700_LatLon0.15_PT072H.grib2 2026-04-23 16:17 1.6M
20260423T12Z_MSC_GDPS_RelativeVorticity_IsbL-0850_LatLon0.15_PT072H.grib2 2026-04-23 16:17 1.6M
20260423T12Z_MSC_GDPS_Runoff-Accum_Sfc_LatLon0.15_PT072H.grib2 2026-04-23 16:17 100K
20260423T12Z_MSC_GDPS_SensibleHeatNetFlux_Sfc_LatLon0.15_PT072H.grib2 2026-04-23 16:17 481K
20260423T12Z_MSC_GDPS_ShowalterIndex_IsbL-0500_LatLon0.15_PT072H.grib2 2026-04-23 16:17 6.2M
20260423T12Z_MSC_GDPS_Snow-Accum12h_Sfc_LatLon0.15_PT072H.grib2 2026-04-23 16:17 1.6M
20260423T12Z_MSC_GDPS_Snow-Accum1h_Sfc_LatLon0.15_PT072H.grib2 2026-04-23 16:17 1.1M
20260423T12Z_MSC_GDPS_Snow-Accum24h_Sfc_LatLon0.15_PT072H.grib2 2026-04-23 16:17 1.9M
20260423T12Z_MSC_GDPS_Snow-Accum3h_Sfc_LatLon0.15_PT072H.grib2 2026-04-23 16:17 1.0M
20260423T12Z_MSC_GDPS_Snow-Accum6h_Sfc_LatLon0.15_PT072H.grib2 2026-04-23 16:17 1.4M
20260423T12Z_MSC_GDPS_Snow-Accum_Sfc_LatLon0.15_PT072H.grib2 2026-04-23 16:17 2.0M
20260423T12Z_MSC_GDPS_SnowDensity_Sfc_LatLon0.15_PT072H.grib2 2026-04-23 16:17 268K
20260423T12Z_MSC_GDPS_SnowDepth_Sfc_LatLon0.15_PT072H.grib2 2026-04-23 16:17 1.8M
20260423T12Z_MSC_GDPS_SoilTemp_DBS-0to10cm_LatLon0.15_PT072H.grib2 2026-04-23 16:17 506K
20260423T12Z_MSC_GDPS_SoilTemp_Sfc_LatLon0.15_PT072H.grib2 2026-04-23 16:17 572K
20260423T12Z_MSC_GDPS_SoilVolumetricIceContent_Sfc_LatLon0.15_PT072H.grib2 2026-04-23 16:17 214K
20260423T12Z_MSC_GDPS_SoilVolumetricWaterContent_DBS-0to10cm_LatLon0.15_PT072H.grib2 2026-04-23 16:17 566K
20260423T12Z_MSC_GDPS_SoilVolumetricWaterContent_DBS-0to1cm_LatLon0.15_PT072H.grib2 2026-04-23 16:17 650K
20260423T12Z_MSC_GDPS_SpecificHumidity_AGL-120m_LatLon0.15_PT072H.grib2 2026-04-23 16:17 1.1M
20260423T12Z_MSC_GDPS_SpecificHumidity_AGL-2m_LatLon0.15_PT072H.grib2 2026-04-23 16:17 1.2M
20260423T12Z_MSC_GDPS_SpecificHumidity_AGL-40m_LatLon0.15_PT072H.grib2 2026-04-23 16:17 1.1M
20260423T12Z_MSC_GDPS_SpecificHumidity_AGL-80m_LatLon0.15_PT072H.grib2 2026-04-23 16:17 1.1M
20260423T12Z_MSC_GDPS_SpecificHumidity_IsbL-0001_LatLon0.15_PT072H.grib2 2026-04-23 16:17 1.3M
20260423T12Z_MSC_GDPS_SpecificHumidity_IsbL-0005_LatLon0.15_PT072H.grib2 2026-04-23 16:17 1.2M
20260423T12Z_MSC_GDPS_SpecificHumidity_IsbL-0010_LatLon0.15_PT072H.grib2 2026-04-23 16:17 1.3M
20260423T12Z_MSC_GDPS_SpecificHumidity_IsbL-0020_LatLon0.15_PT072H.grib2 2026-04-23 16:17 1.3M
20260423T12Z_MSC_GDPS_SpecificHumidity_IsbL-0030_LatLon0.15_PT072H.grib2 2026-04-23 16:17 1.6M
20260423T12Z_MSC_GDPS_SpecificHumidity_IsbL-0050_LatLon0.15_PT072H.grib2 2026-04-23 16:17 1.4M
20260423T12Z_MSC_GDPS_SpecificHumidity_IsbL-0100_LatLon0.15_PT072H.grib2 2026-04-23 16:17 1.3M
20260423T12Z_MSC_GDPS_SpecificHumidity_IsbL-0150_LatLon0.15_PT072H.grib2 2026-04-23 16:17 1.0M
20260423T12Z_MSC_GDPS_SpecificHumidity_IsbL-0175_LatLon0.15_PT072H.grib2 2026-04-23 16:17 1.3M
20260423T12Z_MSC_GDPS_SpecificHumidity_IsbL-0200_LatLon0.15_PT072H.grib2 2026-04-23 16:17 1.3M
20260423T12Z_MSC_GDPS_SpecificHumidity_IsbL-0225_LatLon0.15_PT072H.grib2 2026-04-23 16:17 1.3M
20260423T12Z_MSC_GDPS_SpecificHumidity_IsbL-0250_LatLon0.15_PT072H.grib2 2026-04-23 16:17 1.4M
20260423T12Z_MSC_GDPS_SpecificHumidity_IsbL-0275_LatLon0.15_PT072H.grib2 2026-04-23 16:17 1.3M
20260423T12Z_MSC_GDPS_SpecificHumidity_IsbL-0300_LatLon0.15_PT072H.grib2 2026-04-23 16:17 1.2M
20260423T12Z_MSC_GDPS_SpecificHumidity_IsbL-0350_LatLon0.15_PT072H.grib2 2026-04-23 16:17 1.5M
20260423T12Z_MSC_GDPS_SpecificHumidity_IsbL-0400_LatLon0.15_PT072H.grib2 2026-04-23 16:17 1.5M
20260423T12Z_MSC_GDPS_SpecificHumidity_IsbL-0450_LatLon0.15_PT072H.grib2 2026-04-23 16:17 1.6M
20260423T12Z_MSC_GDPS_SpecificHumidity_IsbL-0500_LatLon0.15_PT072H.grib2 2026-04-23 16:17 1.4M
20260423T12Z_MSC_GDPS_SpecificHumidity_IsbL-0550_LatLon0.15_PT072H.grib2 2026-04-23 16:17 1.6M
20260423T12Z_MSC_GDPS_SpecificHumidity_IsbL-0600_LatLon0.15_PT072H.grib2 2026-04-23 16:17 1.7M
20260423T12Z_MSC_GDPS_SpecificHumidity_IsbL-0650_LatLon0.15_PT072H.grib2 2026-04-23 16:17 1.5M
20260423T12Z_MSC_GDPS_SpecificHumidity_IsbL-0700_LatLon0.15_PT072H.grib2 2026-04-23 16:17 1.6M
20260423T12Z_MSC_GDPS_SpecificHumidity_IsbL-0750_LatLon0.15_PT072H.grib2 2026-04-23 16:17 1.7M
20260423T12Z_MSC_GDPS_SpecificHumidity_IsbL-0800_LatLon0.15_PT072H.grib2 2026-04-23 16:17 1.9M
20260423T12Z_MSC_GDPS_SpecificHumidity_IsbL-0850_LatLon0.15_PT072H.grib2 2026-04-23 16:17 1.9M
20260423T12Z_MSC_GDPS_SpecificHumidity_IsbL-0875_LatLon0.15_PT072H.grib2 2026-04-23 16:17 1.9M
20260423T12Z_MSC_GDPS_SpecificHumidity_IsbL-0900_LatLon0.15_PT072H.grib2 2026-04-23 16:17 1.9M
20260423T12Z_MSC_GDPS_SpecificHumidity_IsbL-0925_LatLon0.15_PT072H.grib2 2026-04-23 16:17 1.6M
20260423T12Z_MSC_GDPS_SpecificHumidity_IsbL-0950_LatLon0.15_PT072H.grib2 2026-04-23 16:17 1.6M
20260423T12Z_MSC_GDPS_SpecificHumidity_IsbL-0970_LatLon0.15_PT072H.grib2 2026-04-23 16:17 1.5M
20260423T12Z_MSC_GDPS_SpecificHumidity_IsbL-0985_LatLon0.15_PT072H.grib2 2026-04-23 16:17 1.5M
20260423T12Z_MSC_GDPS_SpecificHumidity_IsbL-1000_LatLon0.15_PT072H.grib2 2026-04-23 16:17 1.5M
20260423T12Z_MSC_GDPS_SpecificHumidity_IsbL-1015_LatLon0.15_PT072H.grib2 2026-04-23 16:17 1.4M
20260423T12Z_MSC_GDPS_SpecificHumidity_Sfc_LatLon0.15_PT072H.grib2 2026-04-23 16:17 675K
20260423T12Z_MSC_GDPS_Thickness_IsbL-0850to0700_LatLon0.15_PT072H.grib2 2026-04-23 16:17 465K
20260423T12Z_MSC_GDPS_Thickness_IsbL-1000to0500_LatLon0.15_PT072H.grib2 2026-04-23 16:17 371K
20260423T12Z_MSC_GDPS_Thickness_IsbL-1000to0850_LatLon0.15_PT072H.grib2 2026-04-23 16:17 488K
20260423T12Z_MSC_GDPS_TotalCloudCover_Sfc_LatLon0.15_PT072H.grib2 2026-04-23 16:17 846K
20260423T12Z_MSC_GDPS_TotalTotalsIndex_Sfc_LatLon0.15_PT072H.grib2 2026-04-23 16:17 6.2M
20260423T12Z_MSC_GDPS_UVIndex-ClearSky_Sfc_LatLon0.15_PT072H.grib2 2026-04-23 16:51 1.0M
20260423T12Z_MSC_GDPS_UVIndex_Sfc_LatLon0.15_PT072H.grib2 2026-04-23 16:51 1.5M
20260423T12Z_MSC_GDPS_UpwardLongwaveRadiationFlux_NTAtm_LatLon0.15_PT072H.grib2 2026-04-23 16:17 844K
20260423T12Z_MSC_GDPS_VerticalVelocity_IsbL-0200_LatLon0.15_PT072H.grib2 2026-04-23 16:17 926K
20260423T12Z_MSC_GDPS_VerticalVelocity_IsbL-0250_LatLon0.15_PT072H.grib2 2026-04-23 16:17 1.0M
20260423T12Z_MSC_GDPS_VerticalVelocity_IsbL-0500_LatLon0.15_PT072H.grib2 2026-04-23 16:17 1.3M
20260423T12Z_MSC_GDPS_VerticalVelocity_IsbL-0600_LatLon0.15_PT072H.grib2 2026-04-23 16:17 1.3M
20260423T12Z_MSC_GDPS_VerticalVelocity_IsbL-0700_LatLon0.15_PT072H.grib2 2026-04-23 16:17 1.4M
20260423T12Z_MSC_GDPS_VerticalVelocity_IsbL-0850_LatLon0.15_PT072H.grib2 2026-04-23 16:17 1.3M
20260423T12Z_MSC_GDPS_WindChill_Sfc_LatLon0.15_PT072H.grib2 2026-04-23 16:17 5.3M
20260423T12Z_MSC_GDPS_WindDir_AGL-10m_LatLon0.15_PT072H.grib2 2026-04-23 16:17 1.3M
20260423T12Z_MSC_GDPS_WindDir_AGL-120m_LatLon0.15_PT072H.grib2 2026-04-23 16:17 1.4M
20260423T12Z_MSC_GDPS_WindDir_AGL-40m_LatLon0.15_PT072H.grib2 2026-04-23 16:17 1.4M
20260423T12Z_MSC_GDPS_WindDir_AGL-80m_LatLon0.15_PT072H.grib2 2026-04-23 16:17 1.4M
20260423T12Z_MSC_GDPS_WindDir_IsbL-0001_LatLon0.15_PT072H.grib2 2026-04-23 16:17 656K
20260423T12Z_MSC_GDPS_WindDir_IsbL-0005_LatLon0.15_PT072H.grib2 2026-04-23 16:17 793K
20260423T12Z_MSC_GDPS_WindDir_IsbL-0010_LatLon0.15_PT072H.grib2 2026-04-23 16:17 857K
20260423T12Z_MSC_GDPS_WindDir_IsbL-0020_LatLon0.15_PT072H.grib2 2026-04-23 16:17 942K
20260423T12Z_MSC_GDPS_WindDir_IsbL-0030_LatLon0.15_PT072H.grib2 2026-04-23 16:17 919K
20260423T12Z_MSC_GDPS_WindDir_IsbL-0050_LatLon0.15_PT072H.grib2 2026-04-23 16:17 949K
20260423T12Z_MSC_GDPS_WindDir_IsbL-0100_LatLon0.15_PT072H.grib2 2026-04-23 16:17 1.0M
20260423T12Z_MSC_GDPS_WindDir_IsbL-0150_LatLon0.15_PT072H.grib2 2026-04-23 16:17 1.0M
20260423T12Z_MSC_GDPS_WindDir_IsbL-0175_LatLon0.15_PT072H.grib2 2026-04-23 16:17 1.0M
20260423T12Z_MSC_GDPS_WindDir_IsbL-0200_LatLon0.15_PT072H.grib2 2026-04-23 16:17 1.1M
20260423T12Z_MSC_GDPS_WindDir_IsbL-0225_LatLon0.15_PT072H.grib2 2026-04-23 16:17 1.1M
20260423T12Z_MSC_GDPS_WindDir_IsbL-0250_LatLon0.15_PT072H.grib2 2026-04-23 16:17 1.1M
20260423T12Z_MSC_GDPS_WindDir_IsbL-0275_LatLon0.15_PT072H.grib2 2026-04-23 16:17 1.1M
20260423T12Z_MSC_GDPS_WindDir_IsbL-0300_LatLon0.15_PT072H.grib2 2026-04-23 16:17 1.1M
20260423T12Z_MSC_GDPS_WindDir_IsbL-0350_LatLon0.15_PT072H.grib2 2026-04-23 16:17 1.2M
20260423T12Z_MSC_GDPS_WindDir_IsbL-0400_LatLon0.15_PT072H.grib2 2026-04-23 16:17 1.2M
20260423T12Z_MSC_GDPS_WindDir_IsbL-0450_LatLon0.15_PT072H.grib2 2026-04-23 16:17 1.3M
20260423T12Z_MSC_GDPS_WindDir_IsbL-0500_LatLon0.15_PT072H.grib2 2026-04-23 16:17 1.3M
20260423T12Z_MSC_GDPS_WindDir_IsbL-0550_LatLon0.15_PT072H.grib2 2026-04-23 16:17 1.4M
20260423T12Z_MSC_GDPS_WindDir_IsbL-0600_LatLon0.15_PT072H.grib2 2026-04-23 16:17 1.5M
20260423T12Z_MSC_GDPS_WindDir_IsbL-0650_LatLon0.15_PT072H.grib2 2026-04-23 16:17 1.6M
20260423T12Z_MSC_GDPS_WindDir_IsbL-0700_LatLon0.15_PT072H.grib2 2026-04-23 16:17 1.6M
20260423T12Z_MSC_GDPS_WindDir_IsbL-0750_LatLon0.15_PT072H.grib2 2026-04-23 16:17 1.7M
20260423T12Z_MSC_GDPS_WindDir_IsbL-0800_LatLon0.15_PT072H.grib2 2026-04-23 16:17 1.8M
20260423T12Z_MSC_GDPS_WindDir_IsbL-0850_LatLon0.15_PT072H.grib2 2026-04-23 16:17 1.9M
20260423T12Z_MSC_GDPS_WindDir_IsbL-0875_LatLon0.15_PT072H.grib2 2026-04-23 16:17 2.0M
20260423T12Z_MSC_GDPS_WindDir_IsbL-0900_LatLon0.15_PT072H.grib2 2026-04-23 16:17 2.0M
20260423T12Z_MSC_GDPS_WindDir_IsbL-0925_LatLon0.15_PT072H.grib2 2026-04-23 16:17 2.0M
20260423T12Z_MSC_GDPS_WindDir_IsbL-0950_LatLon0.15_PT072H.grib2 2026-04-23 16:17 2.0M
20260423T12Z_MSC_GDPS_WindDir_IsbL-0970_LatLon0.15_PT072H.grib2 2026-04-23 16:17 2.0M
20260423T12Z_MSC_GDPS_WindDir_IsbL-0985_LatLon0.15_PT072H.grib2 2026-04-23 16:17 2.0M
20260423T12Z_MSC_GDPS_WindDir_IsbL-1000_LatLon0.15_PT072H.grib2 2026-04-23 16:17 2.1M
20260423T12Z_MSC_GDPS_WindDir_IsbL-1015_LatLon0.15_PT072H.grib2 2026-04-23 16:17 2.0M
20260423T12Z_MSC_GDPS_WindGust-Max_AGL-10m_LatLon0.15_PT072H.grib2 2026-04-23 16:17 2.2M
20260423T12Z_MSC_GDPS_WindGust-Min_AGL-10m_LatLon0.15_PT072H.grib2 2026-04-23 16:17 2.2M
20260423T12Z_MSC_GDPS_WindGust_AGL-10m_LatLon0.15_PT072H.grib2 2026-04-23 16:17 2.2M
20260423T12Z_MSC_GDPS_WindSpeed_AGL-10m_LatLon0.15_PT072H.grib2 2026-04-23 16:17 1.1M
20260423T12Z_MSC_GDPS_WindSpeed_AGL-120m_LatLon0.15_PT072H.grib2 2026-04-23 16:17 1.2M
20260423T12Z_MSC_GDPS_WindSpeed_AGL-40m_LatLon0.15_PT072H.grib2 2026-04-23 16:17 1.2M
20260423T12Z_MSC_GDPS_WindSpeed_AGL-80m_LatLon0.15_PT072H.grib2 2026-04-23 16:17 1.2M
20260423T12Z_MSC_GDPS_WindSpeed_IsbL-0001_LatLon0.15_PT072H.grib2 2026-04-23 16:17 639K
20260423T12Z_MSC_GDPS_WindSpeed_IsbL-0005_LatLon0.15_PT072H.grib2 2026-04-23 16:17 612K
20260423T12Z_MSC_GDPS_WindSpeed_IsbL-0010_LatLon0.15_PT072H.grib2 2026-04-23 16:17 628K
20260423T12Z_MSC_GDPS_WindSpeed_IsbL-0020_LatLon0.15_PT072H.grib2 2026-04-23 16:17 859K
20260423T12Z_MSC_GDPS_WindSpeed_IsbL-0030_LatLon0.15_PT072H.grib2 2026-04-23 16:17 858K
20260423T12Z_MSC_GDPS_WindSpeed_IsbL-0050_LatLon0.15_PT072H.grib2 2026-04-23 16:17 1.0M
20260423T12Z_MSC_GDPS_WindSpeed_IsbL-0100_LatLon0.15_PT072H.grib2 2026-04-23 16:17 1.1M
20260423T12Z_MSC_GDPS_WindSpeed_IsbL-0150_LatLon0.15_PT072H.grib2 2026-04-23 16:17 1.0M
20260423T12Z_MSC_GDPS_WindSpeed_IsbL-0175_LatLon0.15_PT072H.grib2 2026-04-23 16:17 1.0M
20260423T12Z_MSC_GDPS_WindSpeed_IsbL-0200_LatLon0.15_PT072H.grib2 2026-04-23 16:17 1.0M
20260423T12Z_MSC_GDPS_WindSpeed_IsbL-0225_LatLon0.15_PT072H.grib2 2026-04-23 16:17 1.1M
20260423T12Z_MSC_GDPS_WindSpeed_IsbL-0250_LatLon0.15_PT072H.grib2 2026-04-23 16:17 1.1M
20260423T12Z_MSC_GDPS_WindSpeed_IsbL-0275_LatLon0.15_PT072H.grib2 2026-04-23 16:17 1.1M
20260423T12Z_MSC_GDPS_WindSpeed_IsbL-0300_LatLon0.15_PT072H.grib2 2026-04-23 16:17 1.1M
20260423T12Z_MSC_GDPS_WindSpeed_IsbL-0350_LatLon0.15_PT072H.grib2 2026-04-23 16:17 1.1M
20260423T12Z_MSC_GDPS_WindSpeed_IsbL-0400_LatLon0.15_PT072H.grib2 2026-04-23 16:17 1.1M
20260423T12Z_MSC_GDPS_WindSpeed_IsbL-0450_LatLon0.15_PT072H.grib2 2026-04-23 16:17 1.1M
20260423T12Z_MSC_GDPS_WindSpeed_IsbL-0500_LatLon0.15_PT072H.grib2 2026-04-23 16:17 1.1M
20260423T12Z_MSC_GDPS_WindSpeed_IsbL-0550_LatLon0.15_PT072H.grib2 2026-04-23 16:17 1.1M
20260423T12Z_MSC_GDPS_WindSpeed_IsbL-0600_LatLon0.15_PT072H.grib2 2026-04-23 16:17 1.4M
20260423T12Z_MSC_GDPS_WindSpeed_IsbL-0650_LatLon0.15_PT072H.grib2 2026-04-23 16:17 1.5M
20260423T12Z_MSC_GDPS_WindSpeed_IsbL-0700_LatLon0.15_PT072H.grib2 2026-04-23 16:17 1.5M
20260423T12Z_MSC_GDPS_WindSpeed_IsbL-0750_LatLon0.15_PT072H.grib2 2026-04-23 16:17 1.7M
20260423T12Z_MSC_GDPS_WindSpeed_IsbL-0800_LatLon0.15_PT072H.grib2 2026-04-23 16:17 1.8M
20260423T12Z_MSC_GDPS_WindSpeed_IsbL-0850_LatLon0.15_PT072H.grib2 2026-04-23 16:17 1.9M
20260423T12Z_MSC_GDPS_WindSpeed_IsbL-0875_LatLon0.15_PT072H.grib2 2026-04-23 16:17 1.9M
20260423T12Z_MSC_GDPS_WindSpeed_IsbL-0900_LatLon0.15_PT072H.grib2 2026-04-23 16:17 1.8M
20260423T12Z_MSC_GDPS_WindSpeed_IsbL-0925_LatLon0.15_PT072H.grib2 2026-04-23 16:17 1.9M
20260423T12Z_MSC_GDPS_WindSpeed_IsbL-0950_LatLon0.15_PT072H.grib2 2026-04-23 16:17 1.9M
20260423T12Z_MSC_GDPS_WindSpeed_IsbL-0970_LatLon0.15_PT072H.grib2 2026-04-23 16:17 1.9M
20260423T12Z_MSC_GDPS_WindSpeed_IsbL-0985_LatLon0.15_PT072H.grib2 2026-04-23 16:17 1.9M
20260423T12Z_MSC_GDPS_WindSpeed_IsbL-1000_LatLon0.15_PT072H.grib2 2026-04-23 16:17 1.8M
20260423T12Z_MSC_GDPS_WindSpeed_IsbL-1015_LatLon0.15_PT072H.grib2 2026-04-23 16:17 1.8M
20260423T12Z_MSC_GDPS_WindU_AGL-10m_LatLon0.15_PT072H.grib2 2026-04-23 16:17 1.3M
20260423T12Z_MSC_GDPS_WindU_AGL-120m_LatLon0.15_PT072H.grib2 2026-04-23 16:17 1.0M
20260423T12Z_MSC_GDPS_WindU_AGL-40m_LatLon0.15_PT072H.grib2 2026-04-23 16:17 970K
20260423T12Z_MSC_GDPS_WindU_AGL-80m_LatLon0.15_PT072H.grib2 2026-04-23 16:17 1.0M
20260423T12Z_MSC_GDPS_WindU_IsbL-0001_LatLon0.15_PT072H.grib2 2026-04-23 16:17 500K
20260423T12Z_MSC_GDPS_WindU_IsbL-0005_LatLon0.15_PT072H.grib2 2026-04-23 16:17 691K
20260423T12Z_MSC_GDPS_WindU_IsbL-0010_LatLon0.15_PT072H.grib2 2026-04-23 16:17 705K
20260423T12Z_MSC_GDPS_WindU_IsbL-0020_LatLon0.15_PT072H.grib2 2026-04-23 16:17 735K
20260423T12Z_MSC_GDPS_WindU_IsbL-0030_LatLon0.15_PT072H.grib2 2026-04-23 16:17 738K
20260423T12Z_MSC_GDPS_WindU_IsbL-0050_LatLon0.15_PT072H.grib2 2026-04-23 16:17 698K
20260423T12Z_MSC_GDPS_WindU_IsbL-0100_LatLon0.15_PT072H.grib2 2026-04-23 16:17 905K
20260423T12Z_MSC_GDPS_WindU_IsbL-0150_LatLon0.15_PT072H.grib2 2026-04-23 16:17 1.0M
20260423T12Z_MSC_GDPS_WindU_IsbL-0175_LatLon0.15_PT072H.grib2 2026-04-23 16:17 1.0M
20260423T12Z_MSC_GDPS_WindU_IsbL-0200_LatLon0.15_PT072H.grib2 2026-04-23 16:17 1.0M
20260423T12Z_MSC_GDPS_WindU_IsbL-0225_LatLon0.15_PT072H.grib2 2026-04-23 16:17 843K
20260423T12Z_MSC_GDPS_WindU_IsbL-0250_LatLon0.15_PT072H.grib2 2026-04-23 16:17 846K
20260423T12Z_MSC_GDPS_WindU_IsbL-0275_LatLon0.15_PT072H.grib2 2026-04-23 16:17 874K
20260423T12Z_MSC_GDPS_WindU_IsbL-0300_LatLon0.15_PT072H.grib2 2026-04-23 16:17 866K
20260423T12Z_MSC_GDPS_WindU_IsbL-0350_LatLon0.15_PT072H.grib2 2026-04-23 16:17 883K
20260423T12Z_MSC_GDPS_WindU_IsbL-0400_LatLon0.15_PT072H.grib2 2026-04-23 16:17 885K
20260423T12Z_MSC_GDPS_WindU_IsbL-0450_LatLon0.15_PT072H.grib2 2026-04-23 16:17 1.1M
20260423T12Z_MSC_GDPS_WindU_IsbL-0500_LatLon0.15_PT072H.grib2 2026-04-23 16:17 1.1M
20260423T12Z_MSC_GDPS_WindU_IsbL-0550_LatLon0.15_PT072H.grib2 2026-04-23 16:17 1.1M
20260423T12Z_MSC_GDPS_WindU_IsbL-0600_LatLon0.15_PT072H.grib2 2026-04-23 16:17 1.1M
20260423T12Z_MSC_GDPS_WindU_IsbL-0650_LatLon0.15_PT072H.grib2 2026-04-23 16:17 1.2M
20260423T12Z_MSC_GDPS_WindU_IsbL-0700_LatLon0.15_PT072H.grib2 2026-04-23 16:17 1.2M
20260423T12Z_MSC_GDPS_WindU_IsbL-0750_LatLon0.15_PT072H.grib2 2026-04-23 16:17 1.3M
20260423T12Z_MSC_GDPS_WindU_IsbL-0800_LatLon0.15_PT072H.grib2 2026-04-23 16:17 1.4M
20260423T12Z_MSC_GDPS_WindU_IsbL-0850_LatLon0.15_PT072H.grib2 2026-04-23 16:17 1.4M
20260423T12Z_MSC_GDPS_WindU_IsbL-0875_LatLon0.15_PT072H.grib2 2026-04-23 16:17 1.5M
20260423T12Z_MSC_GDPS_WindU_IsbL-0900_LatLon0.15_PT072H.grib2 2026-04-23 16:17 1.5M
20260423T12Z_MSC_GDPS_WindU_IsbL-0925_LatLon0.15_PT072H.grib2 2026-04-23 16:17 1.5M
20260423T12Z_MSC_GDPS_WindU_IsbL-0950_LatLon0.15_PT072H.grib2 2026-04-23 16:17 1.4M
20260423T12Z_MSC_GDPS_WindU_IsbL-0970_LatLon0.15_PT072H.grib2 2026-04-23 16:17 1.4M
20260423T12Z_MSC_GDPS_WindU_IsbL-0985_LatLon0.15_PT072H.grib2 2026-04-23 16:17 1.4M
20260423T12Z_MSC_GDPS_WindU_IsbL-1000_LatLon0.15_PT072H.grib2 2026-04-23 16:17 1.4M
20260423T12Z_MSC_GDPS_WindU_IsbL-1015_LatLon0.15_PT072H.grib2 2026-04-23 16:17 1.4M
20260423T12Z_MSC_GDPS_WindV_AGL-10m_LatLon0.15_PT072H.grib2 2026-04-23 16:17 1.6M
20260423T12Z_MSC_GDPS_WindV_AGL-120m_LatLon0.15_PT072H.grib2 2026-04-23 16:17 1.0M
20260423T12Z_MSC_GDPS_WindV_AGL-40m_LatLon0.15_PT072H.grib2 2026-04-23 16:17 1.2M
20260423T12Z_MSC_GDPS_WindV_AGL-80m_LatLon0.15_PT072H.grib2 2026-04-23 16:17 1.0M
20260423T12Z_MSC_GDPS_WindV_IsbL-0001_LatLon0.15_PT072H.grib2 2026-04-23 16:17 766K
20260423T12Z_MSC_GDPS_WindV_IsbL-0005_LatLon0.15_PT072H.grib2 2026-04-23 16:17 853K
20260423T12Z_MSC_GDPS_WindV_IsbL-0010_LatLon0.15_PT072H.grib2 2026-04-23 16:17 883K
20260423T12Z_MSC_GDPS_WindV_IsbL-0020_LatLon0.15_PT072H.grib2 2026-04-23 16:17 850K
20260423T12Z_MSC_GDPS_WindV_IsbL-0030_LatLon0.15_PT072H.grib2 2026-04-23 16:17 849K
20260423T12Z_MSC_GDPS_WindV_IsbL-0050_LatLon0.15_PT072H.grib2 2026-04-23 16:17 904K
20260423T12Z_MSC_GDPS_WindV_IsbL-0100_LatLon0.15_PT072H.grib2 2026-04-23 16:17 1.0M
20260423T12Z_MSC_GDPS_WindV_IsbL-0150_LatLon0.15_PT072H.grib2 2026-04-23 16:17 1.0M
20260423T12Z_MSC_GDPS_WindV_IsbL-0175_LatLon0.15_PT072H.grib2 2026-04-23 16:17 1.0M
20260423T12Z_MSC_GDPS_WindV_IsbL-0200_LatLon0.15_PT072H.grib2 2026-04-23 16:17 831K
20260423T12Z_MSC_GDPS_WindV_IsbL-0225_LatLon0.15_PT072H.grib2 2026-04-23 16:17 840K
20260423T12Z_MSC_GDPS_WindV_IsbL-0250_LatLon0.15_PT072H.grib2 2026-04-23 16:17 840K
20260423T12Z_MSC_GDPS_WindV_IsbL-0275_LatLon0.15_PT072H.grib2 2026-04-23 16:17 867K
20260423T12Z_MSC_GDPS_WindV_IsbL-0300_LatLon0.15_PT072H.grib2 2026-04-23 16:17 859K
20260423T12Z_MSC_GDPS_WindV_IsbL-0350_LatLon0.15_PT072H.grib2 2026-04-23 16:17 874K
20260423T12Z_MSC_GDPS_WindV_IsbL-0400_LatLon0.15_PT072H.grib2 2026-04-23 16:17 873K
20260423T12Z_MSC_GDPS_WindV_IsbL-0450_LatLon0.15_PT072H.grib2 2026-04-23 16:17 873K
20260423T12Z_MSC_GDPS_WindV_IsbL-0500_LatLon0.15_PT072H.grib2 2026-04-23 16:17 1.1M
20260423T12Z_MSC_GDPS_WindV_IsbL-0550_LatLon0.15_PT072H.grib2 2026-04-23 16:17 1.1M
20260423T12Z_MSC_GDPS_WindV_IsbL-0600_LatLon0.15_PT072H.grib2 2026-04-23 16:17 1.1M
20260423T12Z_MSC_GDPS_WindV_IsbL-0650_LatLon0.15_PT072H.grib2 2026-04-23 16:17 1.2M
20260423T12Z_MSC_GDPS_WindV_IsbL-0700_LatLon0.15_PT072H.grib2 2026-04-23 16:17 1.2M
20260423T12Z_MSC_GDPS_WindV_IsbL-0750_LatLon0.15_PT072H.grib2 2026-04-23 16:17 1.3M
20260423T12Z_MSC_GDPS_WindV_IsbL-0800_LatLon0.15_PT072H.grib2 2026-04-23 16:17 1.4M
20260423T12Z_MSC_GDPS_WindV_IsbL-0850_LatLon0.15_PT072H.grib2 2026-04-23 16:17 1.4M
20260423T12Z_MSC_GDPS_WindV_IsbL-0875_LatLon0.15_PT072H.grib2 2026-04-23 16:17 1.4M
20260423T12Z_MSC_GDPS_WindV_IsbL-0900_LatLon0.15_PT072H.grib2 2026-04-23 16:17 1.5M
20260423T12Z_MSC_GDPS_WindV_IsbL-0925_LatLon0.15_PT072H.grib2 2026-04-23 16:17 1.5M
20260423T12Z_MSC_GDPS_WindV_IsbL-0950_LatLon0.15_PT072H.grib2 2026-04-23 16:17 1.4M
20260423T12Z_MSC_GDPS_WindV_IsbL-0970_LatLon0.15_PT072H.grib2 2026-04-23 16:17 1.4M
20260423T12Z_MSC_GDPS_WindV_IsbL-0985_LatLon0.15_PT072H.grib2 2026-04-23 16:17 1.4M
20260423T12Z_MSC_GDPS_WindV_IsbL-1000_LatLon0.15_PT072H.grib2 2026-04-23 16:17 1.4M
20260423T12Z_MSC_GDPS_WindV_IsbL-1015_LatLon0.15_PT072H.grib2 2026-04-23 16:17 1.7M